Location: Aalsum
(53.3404°N, 6.0062°E)
Time: 10:07:24
(UTC+00:00)

ATLAS CENTAUR R/B - Pass Details

Date: 28 January 2023
Orbit: 450 x 653 km, 64.7° (Epoch: 19 March)

Event Time Altitude Azimuth Distance (km) Brightness Sun altitude
Rises 19:12:50 0° 231° (SW) 2,979 5.7 -26.9°
Reaches altitude 10° 19:15:11 10° 234° (SW) 2,058 4.8 -27.3°
Enters shadow 19:19:06 57° 265° (W) 758 2.2 -27.8°
